Location: Unspecified
(50.0000°N, 15.0000°E)
Time: 02:45:05
(UTC+02:00)

ISS - Pass Details

Date: 22 September 2021
Orbit: 417 x 423 km, 51.6° (Epoch: 24 October)

Event Time Altitude Azimuth Distance (km) Brightness Sun altitude
Rises 20:51:56 0° 266° (W) 2,361 1.1 -18.7°
Reaches altitude 10° 20:54:02 10° 269° (W) 1,499 0.0 -19.0°
Maximum altitude 20:57:24 68° 353° (N) 456 -3.6 -19.5°
Enters shadow 20:57:48 60° 39° (NE) 488 -3.6 -19.5°
